contact:dominique.lefevre@mio.osupytheas.fr, maurice.libes@osupytheas.fr, didier.mallarino@osupytheas.fr
Project:EMSO http://www.emso-fr.org/EMSO-France
Depth: 2436.0 m
Title:EMSO Ligure Ouest : Data MII capteur MICROCAT
DateTime_Computer,Latitude,Longitude,Temperature,Conductivity,Pressure,DateTime_Instrument
DateTime_Computer,Latitude,Longitude,degC,S m-1,dbar,DateTime_Instrument
2023-03-03T00:00:35Z,42.805,6.029,13.3046,4.60126,2470.614,2023-3-03T02:03:08Z
2023-03-03T00:03:38Z,42.805,6.029,13.3048,4.60133,2470.6,2023-3-03T02:06:11Z
2023-03-03T00:06:41Z,42.805,6.029,13.3061,4.60133,2470.624,2023-3-03T02:09:14Z
2023-03-03T00:09:44Z,42.805,6.029,13.3048,4.60139,2470.6,2023-3-03T02:12:17Z
2023-03-03T00:12:47Z,42.805,6.029,13.3054,4.60148,2470.637,2023-3-03T02:15:20Z
2023-03-03T00:15:50Z,42.805,6.029,13.3054,4.60128,2470.6,2023-3-03T02:18:23Z
2023-03-03T00:18:53Z,42.805,6.029,13.3051,4.60135,2470.624,2023-3-03T02:21:26Z
2023-03-03T00:21:56Z,42.805,6.029,13.3049,4.60152,2470.6,2023-3-03T02:24:29Z
2023-03-03T00:24:59Z,42.805,6.029,13.3054,4.60141,2470.624,2023-3-03T02:27:32Z
2023-03-03T00:28:03Z,42.805,6.029,13.3062,4.60155,2470.661,2023-3-03T02:30:35Z
2023-03-03T00:31:06Z,42.805,6.029,13.3053,4.60134,2470.646,2023-3-03T02:33:38Z
2023-03-03T00:34:09Z,42.805,6.029,13.3066,4.60137,2470.624,2023-3-03T02:36:41Z
2023-03-03T00:37:12Z,42.805,6.029,13.3051,4.60157,2470.614,2023-3-03T02:39:44Z
2023-03-03T00:40:15Z,42.805,6.029,13.3054,4.60161,2470.624,2023-3-03T02:42:48Z
2023-03-03T00:43:18Z,42.805,6.029,13.3043,4.60133,2470.637,2023-3-03T02:45:51Z
2023-03-03T00:46:21Z,42.805,6.029,13.3051,4.60134,2470.624,2023-3-03T02:48:54Z
2023-03-03T00:49:24Z,42.805,6.029,13.3069,4.60164,2470.637,2023-3-03T02:51:57Z
2023-03-03T00:52:27Z,42.805,6.029,13.3055,4.60165,2470.624,2023-3-03T02:55:00Z
2023-03-03T00:55:30Z,42.805,6.029,13.3069,4.60160,2470.637,2023-3-03T02:58:03Z
2023-03-03T00:58:33Z,42.805,6.029,13.3046,4.60147,2470.6,2023-3-03T03:01:06Z
2023-03-03T01:01:36Z,42.805,6.029,13.3056,4.60147,2470.637,2023-3-03T03:04:09Z
2023-03-03T01:04:39Z,42.805,6.029,13.3057,4.60135,2470.661,2023-3-03T03:07:12Z
2023-03-03T01:07:42Z,42.805,6.029,13.3046,4.60125,2470.637,2023-3-03T03:10:15Z
2023-03-03T01:10:46Z,42.805,6.029,13.3053,4.60156,2470.637,2023-3-03T03:13:18Z
2023-03-03T01:13:49Z,42.805,6.029,13.3050,4.60157,2470.624,2023-3-03T03:16:21Z
2023-03-03T01:16:52Z,42.805,6.029,13.3054,4.60135,2470.646,2023-3-03T03:19:24Z
2023-03-03T01:19:55Z,42.805,6.029,13.3043,4.60158,2470.624,2023-3-03T03:22:27Z
2023-03-03T01:22:58Z,42.805,6.029,13.3049,4.60139,2470.661,2023-3-03T03:25:31Z
2023-03-03T01:26:01Z,42.805,6.029,13.3045,4.60155,2470.661,2023-3-03T03:28:34Z
2023-03-03T01:29:04Z,42.805,6.029,13.3061,4.60157,2470.67,2023-3-03T03:31:37Z
2023-03-03T01:32:07Z,42.805,6.029,13.3047,4.60150,2470.646,2023-3-03T03:34:40Z
2023-03-03T01:35:10Z,42.805,6.029,13.3048,4.60149,2470.661,2023-3-03T03:37:43Z
2023-03-03T01:38:13Z,42.805,6.029,13.3067,4.60132,2470.661,2023-3-03T03:40:46Z
2023-03-03T01:41:16Z,42.805,6.029,13.3051,4.60147,2470.646,2023-3-03T03:43:49Z
2023-03-03T01:44:19Z,42.805,6.029,13.3061,4.60152,2470.67,2023-3-03T03:46:52Z
2023-03-03T01:47:22Z,42.805,6.029,13.3050,4.60140,2470.67,2023-3-03T03:49:55Z
2023-03-03T01:50:26Z,42.805,6.029,13.3054,4.60144,2470.646,2023-3-03T03:52:58Z
2023-03-03T01:53:29Z,42.805,6.029,13.3045,4.60148,2470.67,2023-3-03T03:56:01Z
2023-03-03T01:56:32Z,42.805,6.029,13.3041,4.60132,2470.707,2023-3-03T03:59:04Z
2023-03-03T01:59:35Z,42.805,6.029,13.3057,4.60176,2470.684,2023-3-03T04:02:07Z
2023-03-03T02:02:38Z,42.805,6.029,13.3042,4.60155,2470.693,2023-3-03T04:05:11Z
2023-03-03T02:05:41Z,42.805,6.029,13.3047,4.60160,2470.684,2023-3-03T04:08:14Z
2023-03-03T02:08:44Z,42.805,6.029,13.3046,4.60143,2470.707,2023-3-03T04:11:17Z
2023-03-03T02:11:47Z,42.805,6.029,13.3054,4.60144,2470.693,2023-3-03T04:14:20Z
2023-03-03T02:14:50Z,42.805,6.029,13.3054,4.60164,2470.684,2023-3-03T04:17:23Z
2023-03-03T02:17:53Z,42.805,6.029,13.3055,4.60154,2470.693,2023-3-03T04:20:26Z
2023-03-03T02:20:56Z,42.805,6.029,13.3042,4.60135,2470.717,2023-3-03T04:23:29Z
2023-03-03T02:23:59Z,42.805,6.029,13.3041,4.60135,2470.67,2023-3-03T04:26:32Z
2023-03-03T02:27:02Z,42.805,6.029,13.3046,4.60135,2470.684,2023-3-03T04:29:35Z
2023-03-03T02:30:05Z,42.805,6.029,13.3046,4.60133,2470.693,2023-3-03T04:32:38Z
2023-03-03T02:33:09Z,42.805,6.029,13.3046,4.60135,2470.693,2023-3-03T04:35:41Z
2023-03-03T02:36:12Z,42.805,6.029,13.3042,4.60130,2470.717,2023-3-03T04:38:44Z
2023-03-03T02:39:15Z,42.805,6.029,13.3043,4.60125,2470.707,2023-3-03T04:41:47Z
2023-03-03T02:42:18Z,42.805,6.029,13.3046,4.60119,2470.693,2023-3-03T04:44:51Z
2023-03-03T02:45:21Z,42.805,6.029,13.3041,4.60125,2470.67,2023-3-03T04:47:54Z
2023-03-03T02:48:24Z,42.805,6.029,13.3038,4.60128,2470.73,2023-3-03T04:50:57Z
2023-03-03T02:51:27Z,42.805,6.029,13.3042,4.60137,2470.717,2023-3-03T04:54:00Z
2023-03-03T02:54:30Z,42.805,6.029,13.3049,4.60148,2470.707,2023-3-03T04:57:03Z
2023-03-03T02:57:33Z,42.805,6.029,13.3043,4.60119,2470.717,2023-3-03T05:00:06Z
2023-03-03T03:00:36Z,42.805,6.029,13.3042,4.60123,2470.73,2023-3-03T05:03:09Z
2023-03-03T03:03:39Z,42.805,6.029,13.3039,4.60126,2470.754,2023-3-03T05:06:12Z
2023-03-03T03:06:42Z,42.805,6.029,13.3042,4.60120,2470.693,2023-3-03T05:09:15Z
2023-03-03T03:09:45Z,42.805,6.029,13.3041,4.60119,2470.73,2023-3-03T05:12:18Z
2023-03-03T03:12:49Z,42.805,6.029,13.3044,4.60113,2470.73,2023-3-03T05:15:21Z
2023-03-03T03:15:52Z,42.805,6.029,13.3041,4.60116,2470.717,2023-3-03T05:18:24Z
2023-03-03T03:18:55Z,42.805,6.029,13.3039,4.60128,2470.717,2023-3-03T05:21:27Z
2023-03-03T03:21:58Z,42.805,6.029,13.3040,4.60115,2470.717,2023-3-03T05:24:30Z
2023-03-03T03:25:01Z,42.805,6.029,13.3036,4.60122,2470.74,2023-3-03T05:27:34Z
2023-03-03T03:28:04Z,42.805,6.029,13.3038,4.60121,2470.717,2023-3-03T05:30:37Z
2023-03-03T03:31:07Z,42.805,6.029,13.3037,4.60113,2470.73,2023-3-03T05:33:40Z
2023-03-03T03:34:10Z,42.805,6.029,13.3036,4.60119,2470.707,2023-3-03T05:36:43Z
2023-03-03T03:37:13Z,42.805,6.029,13.3043,4.60129,2470.74,2023-3-03T05:39:46Z
2023-03-03T03:40:16Z,42.805,6.029,13.3040,4.60120,2470.74,2023-3-03T05:42:49Z
2023-03-03T03:43:19Z,42.805,6.029,13.3041,4.60112,2470.754,2023-3-03T05:45:52Z
2023-03-03T03:46:22Z,42.805,6.029,13.3036,4.60110,2470.717,2023-3-03T05:48:55Z
2023-03-03T03:49:25Z,42.805,6.029,13.3036,4.60113,2470.763,2023-3-03T05:51:58Z
2023-03-03T03:52:29Z,42.805,6.029,13.3037,4.60122,2470.777,2023-3-03T05:55:01Z
2023-03-03T03:55:32Z,42.805,6.029,13.3038,4.60117,2470.74,2023-3-03T05:58:04Z
2023-03-03T03:58:35Z,42.805,6.029,13.3034,4.60103,2470.8,2023-3-03T06:01:07Z
2023-03-03T04:01:38Z,42.805,6.029,13.3036,4.60110,2470.74,2023-3-03T06:04:10Z
2023-03-03T04:04:41Z,42.805,6.029,13.3035,4.60109,2470.754,2023-3-03T06:07:14Z
2023-03-03T04:07:44Z,42.805,6.029,13.3035,4.60106,2470.73,2023-3-03T06:10:17Z
2023-03-03T04:10:47Z,42.805,6.029,13.3038,4.60111,2470.74,2023-3-03T06:13:20Z
2023-03-03T04:13:50Z,42.805,6.029,13.3035,4.60119,2470.74,2023-3-03T06:16:23Z
2023-03-03T04:16:53Z,42.805,6.029,13.3034,4.60107,2470.707,2023-3-03T06:19:26Z
2023-03-03T04:19:56Z,42.805,6.029,13.3036,4.60103,2470.754,2023-3-03T06:22:29Z
2023-03-03T04:22:59Z,42.805,6.029,13.3034,4.60117,2470.763,2023-3-03T06:25:32Z
2023-03-03T04:26:02Z,42.805,6.029,13.3035,4.60112,2470.74,2023-3-03T06:28:35Z
2023-03-03T04:29:05Z,42.805,6.029,13.3035,4.60124,2470.777,2023-3-03T06:31:38Z
2023-03-03T04:32:09Z,42.805,6.029,13.3035,4.60103,2470.763,2023-3-03T06:34:41Z
2023-03-03T04:35:12Z,42.805,6.029,13.3029,4.60098,2470.707,2023-3-03T06:37:44Z
2023-03-03T04:38:15Z,42.805,6.029,13.3032,4.60097,2470.74,2023-3-03T06:40:47Z
2023-03-03T04:41:18Z,42.805,6.029,13.3034,4.60092,2470.74,2023-3-03T06:43:51Z
2023-03-03T04:44:21Z,42.805,6.029,13.3033,4.60094,2470.74,2023-3-03T06:46:54Z
2023-03-03T04:47:24Z,42.805,6.029,13.3037,4.60110,2470.754,2023-3-03T06:49:57Z
2023-03-03T04:50:27Z,42.805,6.029,13.3029,4.60099,2470.707,2023-3-03T06:53:00Z
2023-03-03T04:53:30Z,42.805,6.029,13.3033,4.60113,2470.754,2023-3-03T06:56:03Z
2023-03-03T04:56:33Z,42.805,6.029,13.3038,4.60107,2470.754,2023-3-03T06:59:06Z
2023-03-03T04:59:36Z,42.805,6.029,13.3034,4.60097,2470.763,2023-3-03T07:02:09Z
2023-03-03T05:02:39Z,42.805,6.029,13.3031,4.60104,2470.777,2023-3-03T07:05:12Z
2023-03-03T05:05:42Z,42.805,6.029,13.3034,4.60104,2470.763,2023-3-03T07:08:15Z
2023-03-03T05:08:45Z,42.805,6.029,13.3035,4.60104,2470.763,2023-3-03T07:11:18Z
2023-03-03T05:11:49Z,42.805,6.029,13.3031,4.60099,2470.8,2023-3-03T07:14:21Z
2023-03-03T05:14:52Z,42.805,6.029,13.3031,4.60098,2470.8,2023-3-03T07:17:24Z
2023-03-03T05:17:55Z,42.805,6.029,13.3036,4.60107,2470.777,2023-3-03T07:20:27Z
2023-03-03T05:20:58Z,42.805,6.029,13.3034,4.60097,2470.787,2023-3-03T07:23:30Z
2023-03-03T05:24:01Z,42.805,6.029,13.3029,4.60097,2470.763,2023-3-03T07:26:34Z
2023-03-03T05:27:04Z,42.805,6.029,13.3031,4.60099,2470.763,2023-3-03T07:29:37Z
2023-03-03T05:30:07Z,42.805,6.029,13.3029,4.60111,2470.787,2023-3-03T07:32:40Z
2023-03-03T05:33:10Z,42.805,6.029,13.3033,4.60117,2470.787,2023-3-03T07:35:43Z
2023-03-03T05:36:13Z,42.805,6.029,13.3034,4.60102,2470.763,2023-3-03T07:38:46Z
2023-03-03T05:39:16Z,42.805,6.029,13.3034,4.60099,2470.8,2023-3-03T07:41:49Z
2023-03-03T05:42:19Z,42.805,6.029,13.3030,4.60101,2470.763,2023-3-03T07:44:52Z
2023-03-03T05:45:22Z,42.805,6.029,13.3030,4.60099,2470.763,2023-3-03T07:47:55Z
2023-03-03T05:48:25Z,42.805,6.029,13.3031,4.60109,2470.777,2023-3-03T07:50:58Z
2023-03-03T05:51:28Z,42.805,6.029,13.3031,4.60094,2470.824,2023-3-03T07:54:01Z
2023-03-03T05:54:32Z,42.805,6.029,13.3033,4.60101,2470.754,2023-3-03T07:57:04Z
2023-03-03T05:57:35Z,42.805,6.029,13.3031,4.60095,2470.74,2023-3-03T08:00:07Z
2023-03-03T06:00:38Z,42.805,6.029,13.3036,4.60104,2470.763,2023-3-03T08:03:11Z
2023-03-03T06:03:41Z,42.805,6.029,13.3031,4.60110,2470.787,2023-3-03T08:06:14Z
2023-03-03T06:06:44Z,42.805,6.029,13.3026,4.60099,2470.74,2023-3-03T08:09:17Z
2023-03-03T06:09:47Z,42.805,6.029,13.3031,4.60094,2470.763,2023-3-03T08:12:20Z
2023-03-03T06:12:50Z,42.805,6.029,13.3032,4.60094,2470.763,2023-3-03T08:15:23Z
2023-03-03T06:15:53Z,42.805,6.029,13.3031,4.60097,2470.74,2023-3-03T08:18:26Z
2023-03-03T06:18:56Z,42.805,6.029,13.3031,4.60102,2470.777,2023-3-03T08:21:29Z
2023-03-03T06:21:59Z,42.805,6.029,13.3031,4.60103,2470.777,2023-3-03T08:24:32Z
2023-03-03T06:25:02Z,42.805,6.029,13.3031,4.60106,2470.754,2023-3-03T08:27:35Z
2023-03-03T06:28:05Z,42.805,6.029,13.3031,4.60096,2470.787,2023-3-03T08:30:38Z
2023-03-03T06:31:08Z,42.805,6.029,13.3033,4.60102,2470.74,2023-3-03T08:33:41Z
2023-03-03T06:34:12Z,42.805,6.029,13.3029,4.60094,2470.74,2023-3-03T08:36:44Z
2023-03-03T06:37:15Z,42.805,6.029,13.3032,4.60096,2470.763,2023-3-03T08:39:47Z
2023-03-03T06:40:18Z,42.805,6.029,13.3034,4.60106,2470.74,2023-3-03T08:42:50Z
2023-03-03T06:43:21Z,42.805,6.029,13.3027,4.60095,2470.787,2023-3-03T08:45:54Z
2023-03-03T06:46:24Z,42.805,6.029,13.3030,4.60094,2470.74,2023-3-03T08:48:57Z
2023-03-03T06:49:27Z,42.805,6.029,13.3034,4.60102,2470.754,2023-3-03T08:52:00Z
2023-03-03T06:52:30Z,42.805,6.029,13.3030,4.60102,2470.763,2023-3-03T08:55:03Z
2023-03-03T06:55:33Z,42.805,6.029,13.3032,4.60094,2470.763,2023-3-03T08:58:06Z
2023-03-03T06:58:36Z,42.805,6.029,13.3034,4.60098,2470.763,2023-3-03T09:01:09Z
2023-03-03T07:01:39Z,42.805,6.029,13.3033,4.60098,2470.763,2023-3-03T09:04:12Z
2023-03-03T07:04:42Z,42.805,6.029,13.3034,4.60098,2470.717,2023-3-03T09:07:15Z
2023-03-03T07:07:45Z,42.805,6.029,13.3036,4.60098,2470.763,2023-3-03T09:10:18Z
2023-03-03T07:10:48Z,42.805,6.029,13.3035,4.60099,2470.74,2023-3-03T09:13:21Z
2023-03-03T07:13:52Z,42.805,6.029,13.3031,4.60099,2470.74,2023-3-03T09:16:24Z
2023-03-03T07:16:55Z,42.805,6.029,13.3039,4.60103,2470.763,2023-3-03T09:19:27Z
2023-03-03T07:19:58Z,42.805,6.029,13.3026,4.60097,2470.777,2023-3-03T09:22:30Z
2023-03-03T07:23:01Z,42.805,6.029,13.3033,4.60099,2470.74,2023-3-03T09:25:34Z
2023-03-03T07:26:04Z,42.805,6.029,13.3028,4.60092,2470.74,2023-3-03T09:28:37Z
2023-03-03T07:29:07Z,42.805,6.029,13.3029,4.60095,2470.777,2023-3-03T09:31:40Z
2023-03-03T07:32:10Z,42.805,6.029,13.3029,4.60103,2470.717,2023-3-03T09:34:43Z
2023-03-03T07:35:13Z,42.805,6.029,13.3030,4.60092,2470.74,2023-3-03T09:37:46Z
2023-03-03T07:38:16Z,42.805,6.029,13.3026,4.60091,2470.777,2023-3-03T09:40:49Z
2023-03-03T07:41:19Z,42.805,6.029,13.3025,4.60092,2470.717,2023-3-03T09:43:52Z
2023-03-03T07:44:22Z,42.805,6.029,13.3029,4.60092,2470.74,2023-3-03T09:46:55Z
2023-03-03T07:47:25Z,42.805,6.029,13.3029,4.60102,2470.763,2023-3-03T09:49:58Z
2023-03-03T07:50:28Z,42.805,6.029,13.3030,4.60100,2470.763,2023-3-03T09:53:01Z
2023-03-03T07:53:32Z,42.805,6.029,13.3033,4.60097,2470.74,2023-3-03T09:56:04Z
2023-03-03T07:56:35Z,42.805,6.029,13.3029,4.60093,2470.74,2023-3-03T09:59:07Z
2023-03-03T07:59:38Z,42.805,6.029,13.3029,4.60102,2470.717,2023-3-03T10:02:10Z
2023-03-03T08:02:41Z,42.805,6.029,13.3024,4.60092,2470.74,2023-3-03T10:05:14Z
2023-03-03T08:05:44Z,42.805,6.029,13.3029,4.60091,2470.717,2023-3-03T10:08:17Z
2023-03-03T08:08:47Z,42.805,6.029,13.3027,4.60092,2470.754,2023-3-03T10:11:20Z
2023-03-03T08:11:50Z,42.805,6.029,13.3026,4.60097,2470.754,2023-3-03T10:14:23Z
2023-03-03T08:14:53Z,42.805,6.029,13.3028,4.60091,2470.754,2023-3-03T10:17:26Z
2023-03-03T08:17:56Z,42.805,6.029,13.3022,4.60092,2470.693,2023-3-03T10:20:29Z
2023-03-03T08:20:59Z,42.805,6.029,13.3026,4.60093,2470.717,2023-3-03T10:23:32Z
2023-03-03T08:24:02Z,42.805,6.029,13.3027,4.60089,2470.74,2023-3-03T10:26:35Z
2023-03-03T08:27:05Z,42.805,6.029,13.3027,4.60090,2470.73,2023-3-03T10:29:38Z
2023-03-03T08:30:08Z,42.805,6.029,13.3030,4.60089,2470.717,2023-3-03T10:32:41Z
2023-03-03T08:33:11Z,42.805,6.029,13.3024,4.60092,2470.74,2023-3-03T10:35:44Z
2023-03-03T08:36:15Z,42.805,6.029,13.3027,4.60091,2470.754,2023-3-03T10:38:47Z
2023-03-03T08:39:18Z,42.805,6.029,13.3024,4.60092,2470.754,2023-3-03T10:41:51Z
2023-03-03T08:42:21Z,42.805,6.029,13.3025,4.60088,2470.717,2023-3-03T10:44:54Z
2023-03-03T08:45:24Z,42.805,6.029,13.3026,4.60091,2470.74,2023-3-03T10:47:57Z
2023-03-03T08:48:27Z,42.805,6.029,13.3027,4.60091,2470.73,2023-3-03T10:51:00Z
2023-03-03T08:51:30Z,42.805,6.029,13.3024,4.60087,2470.74,2023-3-03T10:54:03Z
2023-03-03T08:54:33Z,42.805,6.029,13.3023,4.60088,2470.754,2023-3-03T10:57:06Z
2023-03-03T08:57:36Z,42.805,6.029,13.3026,4.60089,2470.754,2023-3-03T11:00:09Z
2023-03-03T09:00:39Z,42.805,6.029,13.3028,4.60095,2470.693,2023-3-03T11:03:12Z
2023-03-03T09:03:42Z,42.805,6.029,13.3025,4.60088,2470.717,2023-3-03T11:06:15Z
2023-03-03T09:06:45Z,42.805,6.029,13.3026,4.60091,2470.707,2023-3-03T11:09:18Z
2023-03-03T09:09:48Z,42.805,6.029,13.3028,4.60097,2470.74,2023-3-03T11:12:21Z
2023-03-03T09:12:52Z,42.805,6.029,13.3023,4.60090,2470.73,2023-3-03T11:15:24Z
2023-03-03T09:15:55Z,42.805,6.029,13.3024,4.60088,2470.74,2023-3-03T11:18:27Z
2023-03-03T09:18:58Z,42.805,6.029,13.3024,4.60087,2470.73,2023-3-03T11:21:31Z
2023-03-03T09:22:01Z,42.805,6.029,13.3026,4.60087,2470.73,2023-3-03T11:24:34Z
2023-03-03T09:25:04Z,42.805,6.029,13.3024,4.60088,2470.707,2023-3-03T11:27:37Z
2023-03-03T09:28:07Z,42.805,6.029,13.3021,4.60085,2470.717,2023-3-03T11:30:40Z
2023-03-03T09:31:10Z,42.805,6.029,13.3023,4.60084,2470.74,2023-3-03T11:33:43Z
2023-03-03T09:34:13Z,42.805,6.029,13.3024,4.60084,2470.707,2023-3-03T11:36:46Z
2023-03-03T09:37:16Z,42.805,6.029,13.3026,4.60088,2470.717,2023-3-03T11:39:49Z
2023-03-03T09:40:19Z,42.805,6.029,13.3028,4.60097,2470.693,2023-3-03T11:42:52Z
2023-03-03T09:43:22Z,42.805,6.029,13.3024,4.60088,2470.693,2023-3-03T11:45:55Z
2023-03-03T09:46:25Z,42.805,6.029,13.3026,4.60089,2470.707,2023-3-03T11:48:58Z
2023-03-03T09:49:29Z,42.805,6.029,13.3026,4.60089,2470.693,2023-3-03T11:52:01Z
2023-03-03T09:52:32Z,42.805,6.029,13.3031,4.60092,2470.693,2023-3-03T11:55:04Z
2023-03-03T09:55:35Z,42.805,6.029,13.3029,4.60087,2470.707,2023-3-03T11:58:08Z
2023-03-03T09:58:38Z,42.805,6.029,13.3024,4.60100,2470.707,2023-3-03T12:01:11Z
2023-03-03T10:01:41Z,42.805,6.029,13.3026,4.60087,2470.693,2023-3-03T12:04:14Z
2023-03-03T10:04:44Z,42.805,6.029,13.3021,4.60086,2470.693,2023-3-03T12:07:17Z
2023-03-03T10:07:47Z,42.805,6.029,13.3031,4.60087,2470.707,2023-3-03T12:10:20Z
2023-03-03T10:10:50Z,42.805,6.029,13.3024,4.60089,2470.693,2023-3-03T12:13:23Z
2023-03-03T10:13:53Z,42.805,6.029,13.3025,4.60090,2470.693,2023-3-03T12:16:26Z
2023-03-03T10:16:56Z,42.805,6.029,13.3027,4.60098,2470.693,2023-3-03T12:19:29Z
2023-03-03T10:19:59Z,42.805,6.029,13.3026,4.60094,2470.693,2023-3-03T12:22:32Z
2023-03-03T10:23:02Z,42.805,6.029,13.3027,4.60087,2470.67,2023-3-03T12:25:35Z
2023-03-03T10:26:05Z,42.805,6.029,13.3026,4.60086,2470.717,2023-3-03T12:28:38Z
2023-03-03T10:29:09Z,42.805,6.029,13.3025,4.60087,2470.693,2023-3-03T12:31:41Z
2023-03-03T10:32:12Z,42.805,6.029,13.3026,4.60087,2470.693,2023-3-03T12:34:45Z
2023-03-03T10:35:15Z,42.805,6.029,13.3023,4.60086,2470.707,2023-3-03T12:37:48Z
2023-03-03T10:38:18Z,42.805,6.029,13.3026,4.60090,2470.684,2023-3-03T12:40:51Z
2023-03-03T10:41:21Z,42.805,6.029,13.3028,4.60092,2470.684,2023-3-03T12:43:54Z
2023-03-03T10:44:24Z,42.805,6.029,13.3020,4.60092,2470.684,2023-3-03T12:46:57Z
2023-03-03T10:47:27Z,42.805,6.029,13.3029,4.60093,2470.693,2023-3-03T12:50:00Z
2023-03-03T10:50:30Z,42.805,6.029,13.3024,4.60086,2470.684,2023-3-03T12:53:03Z
2023-03-03T10:53:33Z,42.805,6.029,13.3024,4.60088,2470.646,2023-3-03T12:56:06Z
2023-03-03T10:56:36Z,42.805,6.029,13.3027,4.60092,2470.646,2023-3-03T12:59:09Z
2023-03-03T10:59:39Z,42.805,6.029,13.3024,4.60094,2470.684,2023-3-03T13:02:12Z
2023-03-03T11:02:42Z,42.805,6.029,13.3029,4.60089,2470.707,2023-3-03T13:05:15Z
2023-03-03T11:05:45Z,42.805,6.029,13.3032,4.60093,2470.684,2023-3-03T13:08:18Z
2023-03-03T11:08:49Z,42.805,6.029,13.3026,4.60092,2470.646,2023-3-03T13:11:21Z
2023-03-03T11:11:52Z,42.805,6.029,13.3022,4.60089,2470.646,2023-3-03T13:14:25Z
2023-03-03T11:14:55Z,42.805,6.029,13.3024,4.60099,2470.684,2023-3-03T13:17:28Z
2023-03-03T11:17:58Z,42.805,6.029,13.3025,4.60091,2470.646,2023-3-03T13:20:31Z
2023-03-03T11:21:01Z,42.805,6.029,13.3026,4.60091,2470.67,2023-3-03T13:23:34Z
2023-03-03T11:24:04Z,42.805,6.029,13.3026,4.60100,2470.684,2023-3-03T13:26:37Z
2023-03-03T11:27:07Z,42.805,6.029,13.3025,4.60091,2470.646,2023-3-03T13:29:40Z
2023-03-03T11:30:10Z,42.805,6.029,13.3024,4.60090,2470.646,2023-3-03T13:32:43Z
2023-03-03T11:33:13Z,42.805,6.029,13.3031,4.60102,2470.624,2023-3-03T13:35:46Z
2023-03-03T11:36:16Z,42.805,6.029,13.3029,4.60092,2470.614,2023-3-03T13:38:49Z
2023-03-03T11:39:19Z,42.805,6.029,13.3031,4.60104,2470.646,2023-3-03T13:41:52Z
2023-03-03T11:42:22Z,42.805,6.029,13.3033,4.60110,2470.646,2023-3-03T13:44:55Z
2023-03-03T11:45:26Z,42.805,6.029,13.3026,4.60092,2470.637,2023-3-03T13:47:58Z
2023-03-03T11:48:29Z,42.805,6.029,13.3029,4.60097,2470.646,2023-3-03T13:51:02Z
2023-03-03T11:51:32Z,42.805,6.029,13.3027,4.60087,2470.661,2023-3-03T13:54:05Z
2023-03-03T11:54:35Z,42.805,6.029,13.3026,4.60090,2470.637,2023-3-03T13:57:08Z
2023-03-03T11:57:38Z,42.805,6.029,13.3025,4.60089,2470.67,2023-3-03T14:00:11Z
2023-03-03T12:00:41Z,42.805,6.029,13.3036,4.60108,2470.637,2023-3-03T14:03:14Z
2023-03-03T12:03:44Z,42.805,6.029,13.3029,4.60097,2470.646,2023-3-03T14:06:17Z
2023-03-03T12:06:47Z,42.805,6.029,13.3032,4.60108,2470.614,2023-3-03T14:09:20Z
2023-03-03T12:09:50Z,42.805,6.029,13.3029,4.60095,2470.646,2023-3-03T14:12:23Z
2023-03-03T12:12:53Z,42.805,6.029,13.3039,4.60107,2470.614,2023-3-03T14:15:26Z
2023-03-03T12:15:56Z,42.805,6.029,13.3025,4.60105,2470.646,2023-3-03T14:18:29Z
2023-03-03T12:18:59Z,42.805,6.029,13.3036,4.60110,2470.624,2023-3-03T14:21:32Z
2023-03-03T12:22:02Z,42.805,6.029,13.3029,4.60110,2470.624,2023-3-03T14:24:35Z
2023-03-03T12:25:06Z,42.805,6.029,13.3036,4.60105,2470.624,2023-3-03T14:27:38Z
2023-03-03T12:28:09Z,42.805,6.029,13.3030,4.60104,2470.646,2023-3-03T14:30:42Z
2023-03-03T12:31:12Z,42.805,6.029,13.3027,4.60098,2470.624,2023-3-03T14:33:45Z
2023-03-03T12:34:15Z,42.805,6.029,13.3026,4.60091,2470.646,2023-3-03T14:36:48Z
2023-03-03T12:37:18Z,42.805,6.029,13.3037,4.60103,2470.624,2023-3-03T14:39:51Z
2023-03-03T12:40:21Z,42.805,6.029,13.3041,4.60107,2470.637,2023-3-03T14:42:54Z
2023-03-03T12:43:24Z,42.805,6.029,13.3029,4.60103,2470.637,2023-3-03T14:45:57Z
2023-03-03T12:46:27Z,42.805,6.029,13.3030,4.60102,2470.646,2023-3-03T14:49:00Z
2023-03-03T12:49:30Z,42.805,6.029,13.3028,4.60114,2470.624,2023-3-03T14:52:03Z
2023-03-03T12:52:33Z,42.805,6.029,13.3041,4.60109,2470.624,2023-3-03T14:55:06Z
2023-03-03T12:55:36Z,42.805,6.029,13.3041,4.60116,2470.614,2023-3-03T14:58:09Z
2023-03-03T12:58:39Z,42.805,6.029,13.3027,4.60101,2470.646,2023-3-03T15:01:12Z
2023-03-03T13:01:42Z,42.805,6.029,13.3031,4.60115,2470.661,2023-3-03T15:04:15Z
2023-03-03T13:04:46Z,42.805,6.029,13.3036,4.60095,2470.6,2023-3-03T15:07:19Z
2023-03-03T13:07:49Z,42.805,6.029,13.3034,4.60107,2470.661,2023-3-03T15:10:22Z
2023-03-03T13:10:52Z,42.805,6.029,13.3034,4.60114,2470.624,2023-3-03T15:13:25Z
2023-03-03T13:13:55Z,42.805,6.029,13.3038,4.60124,2470.646,2023-3-03T15:16:28Z
2023-03-03T13:16:58Z,42.805,6.029,13.3036,4.60104,2470.624,2023-3-03T15:19:31Z
2023-03-03T13:20:01Z,42.805,6.029,13.3037,4.60115,2470.661,2023-3-03T15:22:34Z
2023-03-03T13:23:04Z,42.805,6.029,13.3031,4.60110,2470.624,2023-3-03T15:25:37Z
2023-03-03T13:26:07Z,42.805,6.029,13.3043,4.60099,2470.637,2023-3-03T15:28:40Z
2023-03-03T13:29:10Z,42.805,6.029,13.3043,4.60122,2470.646,2023-3-03T15:31:43Z
2023-03-03T13:32:13Z,42.805,6.029,13.3046,4.60126,2470.646,2023-3-03T15:34:46Z
2023-03-03T13:35:16Z,42.805,6.029,13.3036,4.60128,2470.637,2023-3-03T15:37:49Z
2023-03-03T13:38:19Z,42.805,6.029,13.3043,4.60121,2470.684,2023-3-03T15:40:52Z
2023-03-03T13:41:23Z,42.805,6.029,13.3038,4.60130,2470.646,2023-3-03T15:43:56Z
2023-03-03T13:44:26Z,42.805,6.029,13.3043,4.60121,2470.646,2023-3-03T15:46:59Z
2023-03-03T13:47:29Z,42.805,6.029,13.3039,4.60117,2470.637,2023-3-03T15:50:02Z
2023-03-03T13:50:32Z,42.805,6.029,13.3037,4.60125,2470.661,2023-3-03T15:53:05Z
2023-03-03T13:53:35Z,42.805,6.029,13.3034,4.60117,2470.67,2023-3-03T15:56:08Z
2023-03-03T13:56:38Z,42.805,6.029,13.3042,4.60100,2470.6,2023-3-03T15:59:11Z
2023-03-03T13:59:41Z,42.805,6.029,13.3043,4.60120,2470.624,2023-3-03T16:02:14Z
2023-03-03T14:02:44Z,42.805,6.029,13.3041,4.60102,2470.646,2023-3-03T16:05:17Z
2023-03-03T14:05:47Z,42.805,6.029,13.3048,4.60127,2470.67,2023-3-03T16:08:20Z
2023-03-03T14:08:50Z,42.805,6.029,13.3043,4.60135,2470.661,2023-3-03T16:11:23Z
2023-03-03T14:11:53Z,42.805,6.029,13.3041,4.60117,2470.693,2023-3-03T16:14:26Z
2023-03-03T14:14:56Z,42.805,6.029,13.3043,4.60123,2470.646,2023-3-03T16:17:29Z
2023-03-03T14:17:59Z,42.805,6.029,13.3040,4.60127,2470.624,2023-3-03T16:20:32Z
2023-03-03T14:21:03Z,42.805,6.029,13.3041,4.60119,2470.646,2023-3-03T16:23:35Z
2023-03-03T14:24:06Z,42.805,6.029,13.3036,4.60117,2470.646,2023-3-03T16:26:39Z
2023-03-03T14:27:09Z,42.805,6.029,13.3045,4.60129,2470.684,2023-3-03T16:29:42Z
2023-03-03T14:30:12Z,42.805,6.029,13.3043,4.60132,2470.661,2023-3-03T16:32:45Z
2023-03-03T14:33:15Z,42.805,6.029,13.3038,4.60134,2470.624,2023-3-03T16:35:48Z
2023-03-03T14:36:18Z,42.805,6.029,13.3038,4.60119,2470.661,2023-3-03T16:38:51Z
2023-03-03T14:39:21Z,42.805,6.029,13.3031,4.60120,2470.684,2023-3-03T16:41:54Z
2023-03-03T14:42:24Z,42.805,6.029,13.3036,4.60140,2470.661,2023-3-03T16:44:57Z
2023-03-03T14:45:27Z,42.805,6.029,13.3034,4.60130,2470.646,2023-3-03T16:48:00Z
2023-03-03T14:48:30Z,42.805,6.029,13.3041,4.60129,2470.661,2023-3-03T16:51:03Z
2023-03-03T14:51:33Z,42.805,6.029,13.3048,4.60124,2470.646,2023-3-03T16:54:06Z
2023-03-03T14:54:36Z,42.805,6.029,13.3046,4.60142,2470.646,2023-3-03T16:57:09Z
2023-03-03T14:57:39Z,42.805,6.029,13.3049,4.60125,2470.646,2023-3-03T17:00:12Z
2023-03-03T15:00:43Z,42.805,6.029,13.3053,4.60127,2470.67,2023-3-03T17:03:16Z
2023-03-03T15:03:46Z,42.805,6.029,13.3047,4.60148,2470.684,2023-3-03T17:06:19Z
2023-03-03T15:06:49Z,42.805,6.029,13.3044,4.60133,2470.661,2023-3-03T17:09:22Z
2023-03-03T15:09:52Z,42.805,6.029,13.3043,4.60125,2470.67,2023-3-03T17:12:25Z